This is the latest recevied weather packets stored in our database for station/object LU3HGB-WX. If no packets are shown the sender has not sent any weather packets the latest 10 day(s).
| Time | Temp. | Humidity | Pressure | Rain* | Wind** | Luminosity | Snow |
|---|---|---|---|---|---|---|---|
| 1778078560 | 23.33° C | 56% | 1009 hPa | 0 mm | - | 597 W/m² | - |
| 1778078260 | 23.33° C | 56% | 1009 hPa | 0 mm | - | 586 W/m² | - |
| 1778077961 | 22.78° C | 59% | 1009 hPa | 0 mm | - | 572 W/m² | - |
| 1778077660 | 22.78° C | 61% | 1009 hPa | 0 mm | - | 563 W/m² | - |
| 1778077366 | 22.78° C | 63% | 1009 hPa | 0 mm | - | 546 W/m² | - |
| 1778077060 | 22.22° C | 63% | 1009 hPa | 0 mm | - | 539 W/m² | - |
| 1778076759 | 22.78° C | 63% | 1009 hPa | 0 mm | - | 524 W/m² | - |
| 1778076460 | 22.78° C | 63% | 1009 hPa | 0 mm | - | 511 W/m² | - |
| 1778076161 | 22.22° C | 63% | 1010 hPa | 0 mm | - | 495 W/m² | - |
| 1778075860 | 21.67° C | 65% | 1010 hPa | 0 mm | - | 484 W/m² | - |
| 1778075560 | 21.67° C | 66% | 1010 hPa | 0 mm | - | 466 W/m² | - |
| 1778075260 | 21.11° C | 69% | 1010 hPa | 0 mm | - | 454 W/m² | - |
| 1778074959 | 20.56° C | 75% | 1010 hPa | 0 mm | - | 438 W/m² | - |
| 1778074659 | 20° C | 77% | 1010 hPa | 0 mm | - | 423 W/m² | - |
| 1778074362 | 19.44° C | 76% | 1010 hPa | 0 mm | - | 405 W/m² | - |
| 1778074060 | 19.44° C | 77% | 1010 hPa | 0 mm | - | 391 W/m² | - |
| 1778073760 | 18.89° C | 80% | 1010 hPa | 0 mm | - | 375 W/m² | - |
| 1778073460 | 18.33° C | 81% | 1010 hPa | 0 mm | - | 359 W/m² | - |
| 1778073160 | 17.78° C | 81% | 1010 hPa | 0 mm | - | 345 W/m² | - |
| 1778072860 | 17.22° C | 82% | 1010 hPa | 0 mm | - | 330 W/m² | - |
| 1778072561 | 16.67° C | 83% | 1010 hPa | 0 mm | - | 311 W/m² | - |
| 1778072260 | 16.11° C | 83% | 1010 hPa | 0 mm | - | 297 W/m² | - |
| 1778071959 | 16.11° C | 84% | 1010 hPa | 0 mm | - | 281 W/m² | - |
| 1778071660 | 16.11° C | 81% | 1010 hPa | 0 mm | - | 264 W/m² | - |
| 1778071359 | 15.56° C | 85% | 1010 hPa | 0 mm | - | 246 W/m² | - |
* Rain latest hour (hover to see other rain measurements)
** Current wind speed in m/s (hover to see current wind gust speed)